Altus AFB, OK

3:27 AM CDT on October 23, 2019 (GMT -0500)
Altus Air Force Base

Weather History for KLTS - August, 2019

Change the Weather History Date:

Friday, August 16, 2019

  Actual Average Record
Temperature  
Mean Temperature 88 °F -  
Max Temperature 103 °F 94 °F 106 °F (2011)
Min Temperature 72 °F 70 °F 62 °F (2016)
Cooling Degree Days 22    
Growing Degree Days 38 (Base 50)    
Moisture  
Dew Point 63 °F    
Average Humidity 47    
Maximum Humidity 80    
Minimum Humidity 25    
Precipitation  
Precipitation 0.00 in - - ()
Sea Level Pressure  
Sea Level Pressure 29.82 in    
Wind  
Wind Speed 11 mph (South)    
Max Wind Speed 17 mph    
Max Gust Speed -    
Visibility 10 miles    
Events      
Averages and records for this station are not official NWS values.
T = Trace of Precipitation, MM = Missing Value Source: NWS Daily Summary

Daily Weather History Graph

Daily Weather History Graph

Search for Another Location

Airport or City:

Astronomy

Aug. 16, 2019 Rise Set
Actual Time 6:58 AM CDT 8:23 PM CDT
Civil Twilight 6:31 AM CDT 8:50 PM CDT
Nautical Twilight 5:59 AM CDT 9:22 PM CDT
Astronomical Twilight 5:26 AM CDT 9:55 PM CDT
Moon 9:25 PM CDT (8/16) 7:51 AM CDT (8/16)
Length of Visible Light 14h 18m
Length of Day
13h 25m
Full, 99% of the Moon is Illuminated
Aug 16
Full
Aug 23
Last Quarter
Aug 30
New
Sep 5
First Quarter
Sep 13
Full

Hourly Weather History & Observations

Time (CDT) Temp. Heat Index Dew Point Humidity Pressure Visibility Wind Dir Wind Speed Gust Speed Precip Events Conditions
12:56 AM 78.8 °F - 66.0 °F 65% 29.87 in 10.0 mi South 9.2 mph - N/A   Clear
1:56 AM 76.1 °F - 65.5 °F 70% 29.87 in 10.0 mi South 8.1 mph - N/A   Clear
2:56 AM 75.7 °F - 65.7 °F 71% 29.87 in 10.0 mi SSE 6.9 mph - N/A   Clear
3:56 AM 73.8 °F - 66.0 °F 77% 29.87 in 10.0 mi SSE 6.9 mph - N/A   Clear
4:56 AM 73.2 °F - 65.8 °F 78% 29.87 in 10.0 mi SSE 4.6 mph - N/A   Clear
5:56 AM 72.3 °F - 65.8 °F 80% 29.87 in 10.0 mi SSE 5.8 mph - N/A   Clear
6:56 AM 72.1 °F - 65.7 °F 80% 29.88 in 10.0 mi SE 6.9 mph - N/A   Clear
8:56 AM 79.9 °F - 66.6 °F 64% 29.89 in 10.0 mi South 11.5 mph - N/A   Partly Cloudy
9:56 AM 89.6 °F 91.5 °F 65.3 °F 44% 29.87 in 10.0 mi SSW 13.8 mph - N/A   Clear
10:56 AM 91.9 °F 94.1 °F 65.5 °F 41% 29.88 in 10.0 mi SW 13.8 mph - N/A   Clear
11:56 AM 96.3 °F 98.1 °F 64.0 °F 34% 29.86 in 10.0 mi SSW 15.0 mph - N/A   Clear
12:56 PM 99.7 °F 101.2 °F 62.6 °F 29% 29.83 in 10.0 mi SW 10.4 mph - N/A   Clear
1:56 PM 102.2 °F 103.6 °F 60.8 °F 26% 29.81 in 10.0 mi South 15.0 mph - N/A   Clear
2:56 PM 103.3 °F 106.1 °F 63.7 °F 27% 29.78 in 10.0 mi South 13.8 mph - N/A   Clear
3:56 PM 103.1 °F 105.1 °F 61.5 °F 26% 29.76 in 10.0 mi South 17.3 mph - N/A   Partly Cloudy
4:56 PM 103.1 °F 105.1 °F 61.5 °F 26% 29.75 in 10.0 mi SSE 17.3 mph - N/A   Clear
5:56 PM 101.8 °F 102.4 °F 59.4 °F 25% 29.74 in 10.0 mi SSE 15.0 mph - N/A   Clear
6:56 PM 97.5 °F 97.7 °F 59.9 °F 29% 29.71 in 10.0 mi South 16.1 mph - N/A   Clear
7:56 PM 93.0 °F 92.0 °F 57.9 °F 31% 29.72 in 10.0 mi SSE 12.7 mph - N/A   Clear
8:56 PM 87.1 °F 86.3 °F 58.3 °F 38% 29.73 in 10.0 mi SSE 12.7 mph - N/A   Clear
9:56 PM 87.6 °F 87.4 °F 60.3 °F 40% 29.74 in 10.0 mi SSE 13.8 mph - N/A   Clear
10:56 PM 86.4 °F 86.3 °F 60.4 °F 42% 29.78 in 10.0 mi SSE 13.8 mph - N/A   Clear
11:56 PM 84.4 °F 84.8 °F 61.3 °F 46% 29.81 in 10.0 mi SSE 15.0 mph - N/A   Clear